Time,TemperatureF,DewpointF,PressureIn,WindDirection,WindDirectionDegrees,WindSpeedMPH,WindSpeedGustMPH,Humidity,HourlyPrecipIn,Conditions,Clouds,dailyrainin,SolarRadiationWatts/m^2,SoftwareType,DateUTC
2013-04-25 00:11:00,47.0,18.0,-100.00,ENE,57,2.0,9.0,31,0.00,,,0.00,0.000000,,2013-04-25 07:11:00,
2013-04-25 00:21:00,47.0,18.0,-100.00,ENE,57,2.0,9.0,31,0.00,,,0.00,0.000000,,2013-04-25 07:21:00,
2013-04-25 00:31:00,47.0,18.0,-100.00,ENE,57,2.0,9.0,31,0.00,,,0.00,0.000000,,2013-04-25 07:31:00,
2013-04-25 00:42:00,47.0,18.0,-100.00,ENE,57,2.0,9.0,31,0.00,,,0.00,0.000000,,2013-04-25 07:42:00,
2013-04-25 00:51:00,46.0,28.0,-100.00,North,357,3.0,8.0,50,0.00,,,0.00,0.000000,,2013-04-25 07:51:00,
2013-04-25 01:21:00,46.0,28.0,-100.00,North,357,3.0,8.0,50,0.00,,,0.00,0.000000,,2013-04-25 08:21:00,
2013-04-25 01:31:00,46.0,28.0,-100.00,North,357,3.0,8.0,50,0.00,,,0.00,0.000000,,2013-04-25 08:31:00,
2013-04-25 01:41:00,46.0,28.0,-100.00,North,357,3.0,8.0,50,0.00,,,0.00,0.000000,,2013-04-25 08:41:00,
2013-04-25 01:51:00,45.0,17.0,-100.00,NE,35,0.0,7.0,32,0.00,,,0.00,0.000000,,2013-04-25 08:51:00,
2013-04-25 02:21:00,45.0,17.0,-100.00,NE,35,0.0,7.0,32,0.00,,,0.00,0.000000,,2013-04-25 09:21:00,
2013-04-25 02:33:00,45.0,17.0,-100.00,NE,35,0.0,7.0,32,0.00,,,0.00,0.000000,,2013-04-25 09:33:00,
2013-04-25 02:42:00,45.0,17.0,-100.00,NE,35,0.0,7.0,32,0.00,,,0.00,0.000000,,2013-04-25 09:42:00,
2013-04-25 02:51:00,46.0,17.0,-100.00,NNE,25,0.0,4.0,31,0.00,,,0.00,0.000000,,2013-04-25 09:51:00,
2013-04-25 03:12:00,46.0,17.0,-100.00,NNE,25,0.0,4.0,31,0.00,,,0.00,0.000000,,2013-04-25 10:12:00,
2013-04-25 03:22:00,46.0,17.0,-100.00,NNE,25,0.0,4.0,31,0.00,,,0.00,0.000000,,2013-04-25 10:22:00,
2013-04-25 03:32:00,46.0,17.0,-100.00,NNE,25,0.0,4.0,31,0.00,,,0.00,0.000000,,2013-04-25 10:32:00,
2013-04-25 03:42:00,46.0,17.0,-100.00,NNE,25,0.0,4.0,31,0.00,,,0.00,0.000000,,2013-04-25 10:42:00,
2013-04-25 03:51:00,45.0,20.0,-100.00,NNW,341,5.0,6.0,37,0.00,,,0.00,0.000000,,2013-04-25 10:51:00,
2013-04-25 04:22:00,45.0,20.0,-100.00,NNW,341,5.0,6.0,37,0.00,,,0.00,0.000000,,2013-04-25 11:22:00,
2013-04-25 04:32:00,45.0,20.0,-100.00,NNW,341,5.0,6.0,37,0.00,,,0.00,0.000000,,2013-04-25 11:32:00,
2013-04-25 04:42:00,45.0,20.0,-100.00,NNW,341,5.0,6.0,37,0.00,,,0.00,0.000000,,2013-04-25 11:42:00,
2013-04-25 04:51:00,44.0,18.0,-100.00,ESE,108,6.0,8.0,35,0.00,,,0.00,0.000000,,2013-04-25 11:51:00,
2013-04-25 05:12:00,44.0,18.0,-100.00,ESE,108,6.0,8.0,35,0.00,,,0.00,0.000000,,2013-04-25 12:12:00,
2013-04-25 05:21:00,44.0,18.0,-100.00,ESE,108,6.0,8.0,35,0.00,,,0.00,0.000000,,2013-04-25 12:21:00,
2013-04-25 05:31:00,44.0,18.0,-100.00,ESE,108,6.0,8.0,35,0.00,,,0.00,0.000000,,2013-04-25 12:31:00,
2013-04-25 05:41:00,44.0,18.0,-100.00,ESE,108,6.0,8.0,35,0.00,,,0.00,0.000000,,2013-04-25 12:41:00,
2013-04-25 05:51:00,45.0,18.0,-100.00,SE,130,6.0,11.0,33,0.00,,,0.00,0.000000,,2013-04-25 12:51:00,
2013-04-25 06:21:00,45.0,18.0,-100.00,SE,130,6.0,11.0,33,0.00,,,0.00,0.000000,,2013-04-25 13:21:00,
2013-04-25 06:31:00,45.0,18.0,-100.00,SE,130,6.0,11.0,33,0.00,,,0.00,0.000000,,2013-04-25 13:31:00,
2013-04-25 06:42:00,45.0,18.0,-100.00,SE,130,6.0,11.0,33,0.00,,,0.00,0.000000,,2013-04-25 13:42:00,
2013-04-25 07:21:00,45.0,13.0,-100.00,North,6,5.0,9.0,27,0.00,,,0.00,17.000000,,2013-04-25 14:21:00,
2013-04-25 07:32:00,45.0,13.0,-100.00,North,6,5.0,9.0,27,0.00,,,0.00,17.000000,,2013-04-25 14:32:00,
2013-04-25 07:51:00,49.0,15.0,-100.00,North,5,1.0,8.0,25,0.00,,,0.00,147.000000,,2013-04-25 14:51:00,
2013-04-25 08:21:00,49.0,15.0,-100.00,North,5,1.0,8.0,25,0.00,,,0.00,147.000000,,2013-04-25 15:21:00,
2013-04-25 08:33:00,49.0,15.0,-100.00,North,5,1.0,8.0,25,0.00,,,0.00,147.000000,,2013-04-25 15:33:00,
2013-04-25 08:42:00,49.0,15.0,-100.00,North,5,1.0,8.0,25,0.00,,,0.00,147.000000,,2013-04-25 15:42:00,
2013-04-25 08:51:00,52.0,23.0,-100.00,North,8,1.0,7.0,32,0.00,,,0.00,289.000000,,2013-04-25 15:51:00,
2013-04-25 09:13:00,52.0,23.0,-100.00,North,8,1.0,7.0,32,0.00,,,0.00,289.000000,,2013-04-25 16:13:00,
2013-04-25 09:24:00,52.0,23.0,-100.00,North,8,1.0,7.0,32,0.00,,,0.00,289.000000,,2013-04-25 16:24:00,
2013-04-25 09:32:00,52.0,23.0,-100.00,North,8,1.0,7.0,32,0.00,,,0.00,289.000000,,2013-04-25 16:32:00,
2013-04-25 09:42:00,52.0,23.0,-100.00,North,8,1.0,7.0,32,0.00,,,0.00,289.000000,,2013-04-25 16:42:00,
2013-04-25 09:51:00,51.0,21.0,-100.00,NNW,339,4.0,8.0,30,0.00,,,0.00,865.000000,,2013-04-25 16:51:00,
2013-04-25 10:11:00,51.0,21.0,-100.00,NNW,339,4.0,8.0,30,0.00,,,0.00,865.000000,,2013-04-25 17:11:00,
2013-04-25 10:22:00,51.0,21.0,-100.00,NNW,339,4.0,8.0,30,0.00,,,0.00,865.000000,,2013-04-25 17:22:00,
2013-04-25 10:32:00,51.0,21.0,-100.00,NNW,339,4.0,8.0,30,0.00,,,0.00,865.000000,,2013-04-25 17:32:00,
2013-04-25 10:42:00,51.0,21.0,-100.00,NNW,339,4.0,8.0,30,0.00,,,0.00,865.000000,,2013-04-25 17:42:00,
2013-04-25 10:51:00,54.0,21.0,-100.00,NNE,16,4.0,10.0,27,0.00,,,0.00,1120.000000,,2013-04-25 17:51:00,
2013-04-25 11:11:00,54.0,21.0,-100.00,NNE,16,4.0,10.0,27,0.00,,,0.00,1120.000000,,2013-04-25 18:11:00,
2013-04-25 11:21:00,54.0,21.0,-100.00,NNE,16,4.0,10.0,27,0.00,,,0.00,1120.000000,,2013-04-25 18:21:00,
2013-04-25 11:32:00,54.0,21.0,-100.00,NNE,16,4.0,10.0,27,0.00,,,0.00,1120.000000,,2013-04-25 18:32:00,
2013-04-25 11:42:00,54.0,21.0,-100.00,NNE,16,4.0,10.0,27,0.00,,,0.00,1120.000000,,2013-04-25 18:42:00,
2013-04-25 11:51:00,57.0,24.0,-100.00,NNW,338,6.0,12.0,28,0.00,,,0.00,1298.000000,,2013-04-25 18:51:00,
2013-04-25 12:12:00,57.0,24.0,-100.00,NNW,338,6.0,12.0,28,0.00,,,0.00,1298.000000,,2013-04-25 19:12:00,
2013-04-25 12:21:00,57.0,24.0,-100.00,NNW,338,6.0,12.0,28,0.00,,,0.00,1298.000000,,2013-04-25 19:21:00,
2013-04-25 12:31:00,57.0,24.0,-100.00,NNW,338,6.0,12.0,28,0.00,,,0.00,1298.000000,,2013-04-25 19:31:00,
2013-04-25 12:41:00,57.0,24.0,-100.00,NNW,338,6.0,12.0,28,0.00,,,0.00,1298.000000,,2013-04-25 19:41:00,
2013-04-25 12:51:00,57.0,27.0,-100.00,SW,220,6.0,15.0,31,0.00,,,0.00,1397.000000,,2013-04-25 19:51:00,
2013-04-25 13:22:00,57.0,27.0,-100.00,SW,220,6.0,15.0,31,0.00,,,0.00,1397.000000,,2013-04-25 20:22:00,
2013-04-25 13:32:00,57.0,27.0,-100.00,SW,220,6.0,15.0,31,0.00,,,0.00,1397.000000,,2013-04-25 20:32:00,
2013-04-25 13:42:00,57.0,27.0,-100.00,SW,220,6.0,15.0,31,0.00,,,0.00,1397.000000,,2013-04-25 20:42:00,
2013-04-25 13:51:00,57.0,31.0,-100.00,North,353,4.0,12.0,37,0.00,,,-99.99,1410.000000,,2013-04-25 20:51:00,
2013-04-25 14:11:00,57.0,31.0,-100.00,North,353,4.0,12.0,37,0.00,,,-99.99,1410.000000,,2013-04-25 21:11:00,
2013-04-25 14:21:00,57.0,31.0,-100.00,North,353,4.0,12.0,37,0.00,,,-99.99,1410.000000,,2013-04-25 21:21:00,
2013-04-25 14:33:00,57.0,31.0,-100.00,North,353,4.0,12.0,37,0.00,,,-99.99,1410.000000,,2013-04-25 21:33:00,
2013-04-25 14:42:00,57.0,31.0,-100.00,North,353,4.0,12.0,37,0.00,,,-99.99,1410.000000,,2013-04-25 21:42:00,
2013-04-25 14:51:00,56.0,28.0,-100.00,NW,317,6.0,13.0,34,0.00,,,0.00,1332.000000,,2013-04-25 21:51:00,
2013-04-25 15:22:00,56.0,28.0,-100.00,NW,317,6.0,13.0,34,0.00,,,0.00,1332.000000,,2013-04-25 22:22:00,
2013-04-25 15:32:00,56.0,28.0,-100.00,NW,317,6.0,13.0,34,0.00,,,0.00,1332.000000,,2013-04-25 22:32:00,
2013-04-25 15:42:00,56.0,28.0,-100.00,NW,317,6.0,13.0,34,0.00,,,0.00,1332.000000,,2013-04-25 22:42:00,
2013-04-25 15:51:00,53.0,31.0,-100.00,SSW,210,6.0,15.0,42,0.00,,,0.00,1174.000000,,2013-04-25 22:51:00,
2013-04-25 16:12:00,53.0,31.0,-100.00,SSW,210,6.0,15.0,42,0.00,,,0.00,1174.000000,,2013-04-25 23:12:00,
2013-04-25 16:22:00,53.0,31.0,-100.00,SSW,210,6.0,15.0,42,0.00,,,0.00,1174.000000,,2013-04-25 23:22:00,
2013-04-25 16:32:00,53.0,31.0,-100.00,SSW,210,6.0,15.0,42,0.00,,,0.00,1174.000000,,2013-04-25 23:32:00,
2013-04-25 16:41:00,53.0,31.0,-100.00,SSW,210,6.0,15.0,42,0.00,,,0.00,1174.000000,,2013-04-25 23:41:00,
2013-04-25 16:51:00,50.0,28.0,-100.00,NNW,344,6.0,15.0,43,0.00,,,0.00,892.000000,,2013-04-25 23:51:00,
2013-04-25 17:21:00,50.0,28.0,-100.00,NNW,344,6.0,15.0,43,0.00,,,0.00,892.000000,,2013-04-26 00:21:00,
2013-04-25 17:31:00,50.0,28.0,-100.00,NNW,344,6.0,15.0,43,0.00,,,0.00,892.000000,,2013-04-26 00:31:00,
2013-04-25 17:41:00,50.0,28.0,-100.00,NNW,344,6.0,15.0,43,0.00,,,0.00,892.000000,,2013-04-26 00:41:00,
2013-04-25 17:51:00,48.0,32.0,-100.00,South,186,10.0,20.0,54,0.00,,,0.00,567.000000,,2013-04-26 00:51:00,
2013-04-25 18:11:00,48.0,32.0,-100.00,South,186,10.0,20.0,54,0.00,,,0.00,567.000000,,2013-04-26 01:11:00,
2013-04-25 18:21:00,48.0,32.0,-100.00,South,186,10.0,20.0,54,0.00,,,0.00,567.000000,,2013-04-26 01:21:00,
2013-04-25 18:31:00,48.0,32.0,-100.00,South,186,10.0,20.0,54,0.00,,,0.00,567.000000,,2013-04-26 01:31:00,
2013-04-25 18:41:00,48.0,32.0,-100.00,South,186,10.0,20.0,54,0.00,,,0.00,567.000000,,2013-04-26 01:41:00,
2013-04-25 18:51:00,44.0,27.0,-100.00,West,269,13.0,25.0,50,0.00,,,0.00,83.000000,,2013-04-26 01:51:00,
2013-04-25 19:11:00,44.0,27.0,-100.00,West,269,13.0,25.0,50,0.00,,,0.00,83.000000,,2013-04-26 02:11:00,
2013-04-25 19:21:00,44.0,27.0,-100.00,West,269,13.0,25.0,50,0.00,,,0.00,83.000000,,2013-04-26 02:21:00,
2013-04-25 19:32:00,44.0,27.0,-100.00,West,269,13.0,25.0,50,0.00,,,0.00,83.000000,,2013-04-26 02:32:00,
2013-04-25 19:42:00,44.0,27.0,-100.00,West,269,13.0,25.0,50,0.00,,,0.00,83.000000,,2013-04-26 02:42:00,
2013-04-25 19:51:00,44.0,26.0,-100.00,ENE,74,12.0,23.0,49,0.00,,,0.00,16.000000,,2013-04-26 02:51:00,
2013-04-25 20:21:00,44.0,26.0,-100.00,ENE,74,12.0,23.0,49,0.00,,,0.00,16.000000,,2013-04-26 03:21:00,
2013-04-25 20:33:00,44.0,26.0,-100.00,ENE,74,12.0,23.0,49,0.00,,,0.00,16.000000,,2013-04-26 03:33:00,
2013-04-25 20:43:00,44.0,26.0,-100.00,ENE,74,12.0,23.0,49,0.00,,,0.00,16.000000,,2013-04-26 03:43:00,
2013-04-25 20:51:00,41.0,25.0,-100.00,WNW,286,14.0,22.0,53,0.00,,,0.00,0.000000,,2013-04-26 03:51:00,
2013-04-25 21:12:00,41.0,25.0,-100.00,WNW,286,14.0,22.0,53,0.00,,,0.00,0.000000,,2013-04-26 04:12:00,
2013-04-25 21:22:00,41.0,25.0,-100.00,WNW,286,14.0,22.0,53,0.00,,,0.00,0.000000,,2013-04-26 04:22:00,
2013-04-25 21:32:00,41.0,25.0,-100.00,WNW,286,14.0,22.0,53,0.00,,,0.00,0.000000,,2013-04-26 04:32:00,
2013-04-25 21:43:00,41.0,25.0,-100.00,WNW,286,14.0,22.0,53,0.00,,,0.00,0.000000,,2013-04-26 04:43:00,
2013-04-25 21:51:00,43.0,20.0,-100.00,North,353,14.0,24.0,39,0.00,,,0.00,0.000000,,2013-04-26 04:51:00,
2013-04-25 22:12:00,43.0,20.0,-100.00,North,353,14.0,24.0,39,0.00,,,0.00,0.000000,,2013-04-26 05:12:00,
2013-04-25 22:22:00,43.0,20.0,-100.00,North,353,14.0,24.0,39,0.00,,,0.00,0.000000,,2013-04-26 05:22:00,
2013-04-25 22:32:00,43.0,20.0,-100.00,North,353,14.0,24.0,39,0.00,,,0.00,0.000000,,2013-04-26 05:32:00,
2013-04-25 22:42:00,43.0,20.0,-100.00,North,353,14.0,24.0,39,0.00,,,0.00,0.000000,,2013-04-26 05:42:00,
2013-04-25 22:51:00,43.0,17.0,-100.00,WSW,244,15.0,24.0,34,0.00,,,0.00,0.000000,,2013-04-26 05:51:00,
2013-04-25 23:21:00,43.0,17.0,-100.00,WSW,244,15.0,24.0,34,0.00,,,0.00,0.000000,,2013-04-26 06:21:00,
2013-04-25 23:32:00,43.0,17.0,-100.00,WSW,244,15.0,24.0,34,0.00,,,0.00,0.000000,,2013-04-26 06:32:00,
2013-04-25 23:41:00,43.0,17.0,-100.00,WSW,244,15.0,24.0,34,0.00,,,0.00,0.000000,,2013-04-26 06:41:00,
2013-04-25 23:51:00,43.0,19.0,-100.00,NNE,18,14.0,23.0,38,0.00,,,0.00,0.000000,,2013-04-26 06:51:00,